Info for pilots

Image

Airfield Info:

EBUL
N51 08.7 - E003 28.6
ELEV 95' / 29m
RWY 07 / 25
799m * 45m (CIV) - 2980m (MIL)
Ursel Radio 135.125
Tel Aero Club Brugge : +32(0)9 374 25 75
Tel Vliegclub Ursel : +32(0)9 374 12 90

Operational Hours
FRI: 14h00LT - SS+30 MIN
SAT, SUN and HOL: TKOF and LDG: 10h00LT - SS+30 MIN
After 20h00LT to SS+30 MIN: only LDG allowed (PN)

Local Traffic Regulations
The use of the AD is subject to PPR from the OPR;
AD given in concession to the CIV club outside MIL ACT;
Solo training flights can only be performed after two reconnaissance flights with instructor. The solo training flight must be performed within six weeks after the first reconnaissance flight;
Jet aircraft operations not allowed.
Obstacles: trees between 10M AGL and 22M AGL, caution when crosswind:
North of the RWY, 75M from CL, along the whole length of the RWY;
South of the RWY, 75M from CL, and at THR RWY 25 from THR RWY 07 to 140M east of THR RWY 07

Image

Image

Watch out!

Flight Procedures
RWY 07 and 25 left hand circuit, 1.200 FT QNH

Taxi procedures:
RWY 07 (TKOF):
taxi on the north side of the RWY to the HLDG position of RWY 07

RWY 07 (LDG):
after landing roll out to the second intersection (THR RWY 25), turn left, turn left again, taxi via the TWY to the first intersection, turn left, cross the RWY (check for landing ACFT), taxi on the south side of the RWY to the AD reporting office

RWY 25 (TKOF):
taxi on the north side of the first intersection, turn left, next turn right, taxi via the TWY to the second intersection, turn right, taxi to the HLDG of RWY 25

RWY 25 (LDG):
after landing roll out to the end of the RWY, taxi on the south side of the RWY to the AD reporting office.

Image

Current Metars - Auto refresh

EBOS - Oostende
2018/09/23 07:50 EBOS 230750Z 09007KT 4000 BR SCT005 BKN040 12/10 Q1011 RERA REDZ TEMPO RA BKN005


EBAW - Antwerpen
2018/09/23 07:50 EBAW 230750Z 08003KT 040V110 3000 -DZ BR SCT003 BKN005 11/11 Q1011 TEMPO 2500 DZ BKN003


EBBR - Brussel
2018/09/23 07:50 EBBR 230750Z 06003KT 4500 -RADZ BR BKN004 BKN006 11/11 Q1011 BECMG 7000 NSW BKN007

Source : NOAA.GOV

Current TAFs - Auto refresh

EBOS - Oostende
2018/09/23 06:27 TAF EBOS 230500Z 2306/2412 09004KT 8000 SCT010 BKN025 PROB30 TEMPO 2306/2307 3500 BR -DZ BKN005 TEMPO 2309/2318 4000 RA SHRA SCT010 BKN014TCU BECMG 2311/2313 35015KT TEMPO 2312/2320 34022G33KT PROB30 TEMPO 2318/2402 4500 SHRA

EBAW - Antwerpen
2018/09/23 06:27 TAF TAF EBAW 230500Z 2306/2315 06005KT 7000 SCT007 BKN012 TEMPO 2306/2309 4000 BR -DZ SCT004 BKN006 PROB30 TEMPO 2306/2308 2500 DZ BKN003 BECMG 2310/2312 36010KT TEMPO 2310/2315 3500 RA SHRA BKN008 SCT015TCU

EBBR - Brussel
2018/09/23 06:27 TAF TAF EBBR 230500Z 2306/2412 05005KT 7000 SCT007 BKN014 TEMPO 2306/2309 4000 BR -DZ SCT003 BKN005 PROB30 TEMPO 2306/2308 2000 DZ BKN003 BECMG 2310/2312 35010KT TEMPO 2310/2320 3500 RA SHRA BKN009 SCT015TCU BECMG 2320/2322 29006KT SCT030 PROB30 TEMPO 2401/2404 4500 SHRA

Source : NOAA.GOV
Image

Webcam

Direction runway 07 :